GFSWCAN_prec_pwat_000.txt.gz
Precipitable_Water
1.05 1.04 1.00 1.01 1.01 1.00 0.99 1.01 1.01 1.01 1.02 1.00 1.02 1.03 1.04 1.03 1.02 0.98 0.93 1.07 0.86 0.72 0.68 0.75 0.75 0.63 0.62 0.62 0.49 0.58 0.58 0.57 0.56 0.46 0.43 0.41 0.40 0.42 0.39 0.41 0.40 0.38 0.37 0.36 0.37 0.32 0.27 0.54 0.55 0.47 0.53 0.64 0.64 0.62
1.03 1.02 1.05 1.00 1.02 0.99 1.02 1.03 1.02 1.06 1.05 1.00 1.00 1.02 1.05 1.02 1.04 1.04 0.85 1.07 1.08 0.83 0.76 0.93 0.89 0.85 0.80 0.72 0.66 0.67 0.62 0.61 0.63 0.53 0.53 0.52 0.44 0.47 0.41 0.33 0.47 0.38 0.43 0.37 0.38 0.37 0.45 0.51 0.53 0.62 0.65 0.62 0.61 0.65
0.90 0.97 1.01 0.98 1.02 1.01 0.99 1.03 1.05 1.04 1.02 1.00 1.02 1.05 1.06 1.07 1.07 1.07 0.98 1.04 1.01 0.82 0.77 0.77 0.67 0.79 0.91 0.88 0.91 0.65 0.70 0.73 0.68 0.74 0.63 0.59 0.46 0.53 0.39 0.40 0.44 0.52 0.52 0.41 0.41 0.42 0.44 0.51 0.57 0.62 0.63 0.65 0.68 0.68
0.76 0.84 0.92 0.97 1.00 1.03 1.04 1.02 1.00 1.03 1.02 1.01 1.01 1.04 1.08 1.09 1.09 1.10 1.01 1.09 1.02 0.87 0.65 0.68 0.90 0.82 0.94 0.95 0.93 0.91 0.84 0.85 0.82 0.77 0.65 0.57 0.49 0.60 0.45 0.47 0.46 0.51 0.51 0.45 0.40 0.43 0.49 0.52 0.59 0.63 0.66 0.66 0.67 0.65
0.65 0.67 0.73 0.80 0.87 0.92 0.97 1.01 1.04 1.05 1.08 1.09 1.08 1.08 1.07 1.08 1.11 1.12 1.11 1.11 1.12 0.87 0.64 0.66 0.80 0.83 0.88 0.90 0.87 0.90 0.84 0.77 0.72 0.66 0.61 0.54 0.61 0.58 0.55 0.53 0.45 0.55 0.48 0.44 0.36 0.49 0.54 0.48 0.54 0.63 0.61 0.65 0.63 0.51
0.62 0.66 0.63 0.64 0.68 0.70 0.80 0.96 1.02 1.04 1.07 1.09 1.09 1.11 1.10 1.10 1.12 1.00 0.79 0.97 1.08 1.06 0.76 0.56 0.78 0.77 0.80 0.83 0.80 0.80 0.79 0.77 0.74 0.66 0.62 0.64 0.68 0.60 0.46 0.37 0.51 0.55 0.57 0.57 0.50 0.53 0.50 0.57 0.62 0.63 0.62 0.58 0.51 0.45
0.58 0.61 0.65 0.65 0.64 0.64 0.65 0.68 0.77 0.92 0.98 1.00 1.05 1.08 1.09 1.11 1.06 0.86 0.75 0.90 1.04 1.03 0.73 0.58 0.58 0.69 0.75 0.76 0.75 0.74 0.77 0.73 0.71 0.65 0.59 0.60 0.60 0.62 0.50 0.38 0.43 0.55 0.56 0.53 0.54 0.59 0.55 0.57 0.55 0.56 0.50 0.46 0.44 0.44
0.57 0.60 0.63 0.66 0.71 0.68 0.63 0.63 0.65 0.68 0.72 0.77 0.88 0.97 1.02 1.02 0.98 0.86 0.97 1.03 1.04 0.86 0.76 0.54 0.51 0.56 0.72 0.62 0.59 0.73 0.65 0.68 0.69 0.63 0.62 0.57 0.58 0.56 0.42 0.46 0.49 0.48 0.49 0.50 0.57 0.60 0.57 0.53 0.49 0.45 0.44 0.42 0.38 0.39
0.58 0.59 0.61 0.63 0.63 0.66 0.70 0.70 0.68 0.69 0.69 0.73 0.77 0.81 0.81 0.77 0.72 0.77 0.94 0.95 0.95 0.78 0.56 0.51 0.45 0.42 0.67 0.61 0.63 0.62 0.64 0.49 0.63 0.52 0.51 0.55 0.45 0.37 0.42 0.43 0.45 0.47 0.45 0.49 0.53 0.49 0.47 0.42 0.39 0.38 0.37 0.35 0.35 0.37
0.58 0.59 0.61 0.61 0.61 0.63 0.65 0.68 0.68 0.72 0.72 0.70 0.68 0.60 0.52 0.63 0.80 0.79 0.68 0.60 0.60 0.60 0.58 0.48 0.56 0.47 0.57 0.54 0.50 0.49 0.52 0.44 0.38 0.40 0.50 0.43 0.37 0.44 0.46 0.45 0.44 0.48 0.45 0.44 0.39 0.38 0.38 0.36 0.34 0.34 0.34 0.35 0.37 0.36
0.57 0.60 0.62 0.61 0.60 0.61 0.64 0.67 0.69 0.68 0.65 0.59 0.49 0.47 0.63 0.73 0.66 0.58 0.49 0.46 0.48 0.43 0.49 0.50 0.51 0.46 0.59 0.45 0.44 0.50 0.42 0.42 0.31 0.32 0.34 0.31 0.29 0.33 0.40 0.43 0.47 0.45 0.43 0.41 0.40 0.38 0.38 0.36 0.35 0.33 0.32 0.34 0.34 0.33
0.58 0.60 0.63 0.64 0.63 0.60 0.62 0.65 0.67 0.63 0.60 0.59 0.59 0.64 0.61 0.52 0.46 0.40 0.36 0.40 0.39 0.37 0.48 0.44 0.47 0.51 0.53 0.55 0.43 0.44 0.35 0.36 0.25 0.37 0.29 0.22 0.26 0.33 0.38 0.40 0.41 0.41 0.37 0.36 0.34 0.33 0.31 0.29 0.31 0.31 0.30 0.31 0.33 0.35
0.59 0.60 0.62 0.62 0.62 0.60 0.60 0.62 0.61 0.63 0.62 0.59 0.49 0.44 0.42 0.41 0.31 0.28 0.25 0.30 0.32 0.40 0.43 0.43 0.38 0.42 0.43 0.42 0.36 0.32 0.26 0.24 0.35 0.26 0.22 0.24 0.33 0.38 0.40 0.35 0.33 0.33 0.33 0.29 0.25 0.24 0.24 0.25 0.28 0.31 0.31 0.35 0.38 0.37
0.59 0.61 0.61 0.60 0.61 0.59 0.58 0.57 0.59 0.60 0.53 0.38 0.30 0.23 0.26 0.24 0.26 0.29 0.31 0.34 0.40 0.41 0.40 0.40 0.37 0.36 0.36 0.29 0.30 0.23 0.28 0.30 0.23 0.19 0.17 0.24 0.30 0.34 0.36 0.37 0.36 0.34 0.29 0.24 0.22 0.22 0.23 0.26 0.28 0.31 0.34 0.38 0.39 0.37
0.56 0.58 0.58 0.59 0.58 0.57 0.56 0.56 0.55 0.52 0.41 0.30 0.28 0.19 0.21 0.28 0.33 0.34 0.37 0.36 0.39 0.41 0.39 0.34 0.32 0.30 0.28 0.24 0.26 0.25 0.21 0.18 0.18 0.15 0.20 0.29 0.33 0.34 0.33 0.33 0.30 0.26 0.23 0.22 0.21 0.24 0.26 0.28 0.29 0.30 0.37 0.41 0.42 0.37
0.54 0.54 0.53 0.56 0.55 0.53 0.52 0.51 0.50 0.46 0.35 0.31 0.28 0.23 0.27 0.26 0.26 0.28 0.30 0.31 0.39 0.38 0.34 0.29 0.24 0.21 0.20 0.21 0.19 0.17 0.16 0.12 0.13 0.21 0.27 0.29 0.28 0.29 0.27 0.26 0.28 0.28 0.26 0.23 0.23 0.27 0.29 0.29 0.30 0.33 0.39 0.41 0.40 0.36
0.50 0.45 0.54 0.55 0.55 0.50 0.50 0.45 0.41 0.33 0.28 0.24 0.23 0.29 0.29 0.26 0.25 0.26 0.29 0.30 0.38 0.29 0.20 0.21 0.18 0.17 0.20 0.18 0.15 0.17 0.15 0.18 0.22 0.24 0.24 0.25 0.25 0.27 0.28 0.29 0.29 0.28 0.25 0.25 0.26 0.28 0.30 0.33 0.35 0.36 0.36 0.39 0.37 0.37
0.45 0.49 0.51 0.52 0.49 0.47 0.44 0.42 0.34 0.28 0.21 0.24 0.21 0.24 0.26 0.28 0.27 0.28 0.29 0.31 0.31 0.27 0.23 0.20 0.20 0.15 0.13 0.10 0.12 0.16 0.20 0.22 0.23 0.23 0.24 0.23 0.24 0.24 0.26 0.26 0.25 0.24 0.27 0.29 0.31 0.32 0.30 0.32 0.34 0.36 0.39 0.38 0.37 0.36
0.49 0.49 0.49 0.47 0.47 0.42 0.35 0.35 0.37 0.25 0.25 0.28 0.28 0.30 0.30 0.30 0.32 0.30 0.31 0.32 0.31 0.31 0.27 0.24 0.19 0.15 0.15 0.18 0.18 0.19 0.20 0.21 0.21 0.22 0.24 0.26 0.27 0.26 0.25 0.24 0.24 0.26 0.28 0.28 0.32 0.30 0.29 0.35 0.38 0.40 0.38 0.37 0.35 0.35
0.50 0.49 0.50 0.51 0.50 0.39 0.32 0.31 0.37 0.29 0.24 0.27 0.28 0.25 0.26 0.24 0.27 0.27 0.27 0.27 0.26 0.25 0.21 0.19 0.16 0.18 0.19 0.20 0.21 0.21 0.22 0.23 0.24 0.23 0.22 0.24 0.26 0.27 0.27 0.27 0.27 0.27 0.27 0.30 0.31 0.31 0.32 0.36 0.40 0.40 0.39 0.39 0.35 0.34
0.47 0.46 0.49 0.50 0.44 0.40 0.33 0.28 0.26 0.26 0.25 0.23 0.25 0.25 0.23 0.25 0.24 0.24 0.22 0.27 0.23 0.19 0.17 0.18 0.17 0.18 0.21 0.22 0.24 0.25 0.26 0.28 0.26 0.28 0.26 0.23 0.24 0.27 0.28 0.29 0.29 0.30 0.31 0.32 0.30 0.32 0.34 0.37 0.39 0.39 0.39 0.37 0.37 0.34
0.47 0.47 0.44 0.45 0.36 0.34 0.30 0.32 0.27 0.29 0.24 0.23 0.23 0.24 0.21 0.20 0.21 0.22 0.26 0.23 0.21 0.21 0.20 0.19 0.20 0.23 0.23 0.24 0.26 0.28 0.29 0.29 0.26 0.25 0.25 0.27 0.27 0.28 0.29 0.31 0.33 0.33 0.34 0.34 0.34 0.33 0.36 0.40 0.41 0.40 0.37 0.36 0.34 0.32
0.48 0.45 0.39 0.37 0.29 0.27 0.24 0.32 0.25 0.25 0.20 0.21 0.23 0.20 0.20 0.20 0.22 0.25 0.21 0.21 0.21 0.22 0.23 0.24 0.24 0.25 0.25 0.25 0.26 0.25 0.25 0.26 0.27 0.28 0.32 0.33 0.33 0.34 0.35 0.34 0.36 0.34 0.33 0.34 0.37 0.37 0.38 0.41 0.39 0.37 0.36 0.34 0.31 0.29
0.49 0.36 0.30 0.27 0.26 0.22 0.28 0.24 0.26 0.24 0.23 0.21 0.20 0.18 0.18 0.20 0.23 0.21 0.17 0.19 0.19 0.22 0.23 0.24 0.25 0.24 0.26 0.26 0.25 0.26 0.27 0.30 0.30 0.31 0.34 0.34 0.32 0.34 0.37 0.36 0.38 0.39 0.39 0.39 0.38 0.38 0.39 0.38 0.37 0.35 0.33 0.31 0.31 0.29
0.29 0.27 0.28 0.22 0.27 0.23 0.20 0.20 0.21 0.21 0.17 0.19 0.18 0.18 0.18 0.21 0.18 0.16 0.15 0.15 0.18 0.20 0.23 0.25 0.25 0.25 0.22 0.23 0.25 0.27 0.31 0.32 0.32 0.31 0.33 0.36 0.36 0.36 0.35 0.37 0.37 0.39 0.42 0.38 0.36 0.36 0.36 0.36 0.33 0.33 0.33 0.32 0.29 0.26
0.21 0.25 0.22 0.21 0.22 0.20 0.20 0.17 0.17 0.17 0.19 0.18 0.19 0.21 0.21 0.19 0.17 0.14 0.13 0.17 0.20 0.22 0.23 0.23 0.24 0.24 0.24 0.25 0.26 0.27 0.30 0.36 0.34 0.30 0.32 0.36 0.37 0.35 0.33 0.32 0.32 0.36 0.40 0.38 0.36 0.34 0.33 0.34 0.33 0.32 0.31 0.29 0.26 0.23
0.20 0.21 0.25 0.28 0.25 0.24 0.21 0.21 0.22 0.20 0.18 0.17 0.17 0.17 0.19 0.16 0.15 0.15 0.19 0.23 0.24 0.27 0.29 0.31 0.30 0.27 0.26 0.26 0.28 0.32 0.34 0.35 0.34 0.32 0.34 0.35 0.38 0.39 0.38 0.34 0.32 0.38 0.42 0.38 0.36 0.36 0.35 0.34 0.32 0.30 0.28 0.26 0.24 0.23
0.22 0.23 0.19 0.22 0.22 0.24 0.21 0.20 0.19 0.18 0.18 0.20 0.19 0.16 0.17 0.17 0.16 0.21 0.25 0.30 0.31 0.33 0.32 0.33 0.33 0.32 0.31 0.31 0.32 0.32 0.33 0.36 0.35 0.34 0.33 0.34 0.37 0.39 0.41 0.40 0.40 0.41 0.42 0.40 0.39 0.38 0.36 0.34 0.32 0.30 0.28 0.25 0.25 0.26
0.20 0.22 0.22 0.18 0.20 0.22 0.20 0.19 0.19 0.20 0.22 0.22 0.19 0.19 0.20 0.24 0.26 0.28 0.30 0.32 0.35 0.34 0.31 0.30 0.32 0.34 0.32 0.32 0.32 0.34 0.35 0.34 0.30 0.25 0.24 0.25 0.28 0.33 0.40 0.41 0.40 0.39 0.39 0.39 0.40 0.40 0.39 0.38 0.36 0.33 0.31 0.29 0.29 0.29
0.19 0.24 0.19 0.18 0.18 0.17 0.19 0.23 0.22 0.26 0.29 0.29 0.30 0.30 0.29 0.29 0.32 0.36 0.35 0.36 0.34 0.32 0.33 0.34 0.35 0.32 0.28 0.28 0.29 0.32 0.35 0.36 0.35 0.31 0.27 0.27 0.30 0.35 0.37 0.38 0.39 0.40 0.40 0.39 0.37 0.37 0.38 0.38 0.36 0.35 0.32 0.31 0.29 0.28
0.23 0.23 0.21 0.21 0.20 0.21 0.24 0.27 0.31 0.31 0.31 0.29 0.31 0.28 0.25 0.28 0.31 0.36 0.36 0.36 0.36 0.35 0.33 0.32 0.31 0.31 0.30 0.30 0.31 0.29 0.29 0.35 0.36 0.35 0.35 0.35 0.34 0.35 0.36 0.38 0.38 0.38 0.38 0.37 0.35 0.34 0.34 0.33 0.32 0.31 0.30 0.29 0.28 0.26
0.24 0.21 0.20 0.18 0.19 0.24 0.29 0.28 0.27 0.25 0.26 0.26 0.25 0.27 0.26 0.27 0.25 0.29 0.32 0.33 0.31 0.30 0.31 0.31 0.30 0.31 0.34 0.34 0.34 0.34 0.33 0.33 0.33 0.34 0.34 0.34 0.35 0.36 0.37 0.37 0.37 0.36 0.35 0.34 0.33 0.32 0.31 0.30 0.29 0.28 0.27 0.25 0.25 0.25
0.23 0.23 0.22 0.21 0.20 0.20 0.23 0.26 0.24 0.23 0.23 0.22 0.23 0.24 0.25 0.26 0.23 0.26 0.31 0.33 0.31 0.30 0.30 0.31 0.32 0.33 0.33 0.32 0.32 0.33 0.33 0.33 0.33 0.33 0.33 0.33 0.33 0.34 0.34 0.35 0.35 0.34 0.33 0.32 0.31 0.30 0.29 0.28 0.27 0.27 0.26 0.25 0.25 0.24

GFSWCAN_prec_pwat_003.txt.gz
Precipitable_Water
1.11 1.09 1.05 0.94 0.92 0.92 0.92 0.92 0.94 0.95 0.95 0.96 0.97 0.98 0.99 0.97 0.96 0.91 0.86 1.01 0.78 0.61 0.63 0.68 0.69 0.57 0.60 0.62 0.52 0.61 0.58 0.58 0.57 0.44 0.42 0.40 0.40 0.43 0.41 0.42 0.39 0.37 0.36 0.35 0.37 0.31 0.25 0.50 0.46 0.36 0.46 0.55 0.58 0.58
1.06 1.10 1.09 1.09 1.04 0.99 0.94 0.92 0.94 0.95 0.96 1.00 1.01 1.01 1.01 1.03 1.00 0.98 0.78 0.99 1.02 0.74 0.66 0.86 0.81 0.83 0.80 0.79 0.70 0.69 0.61 0.60 0.59 0.50 0.50 0.49 0.44 0.49 0.44 0.35 0.49 0.38 0.44 0.37 0.39 0.35 0.45 0.50 0.49 0.52 0.57 0.55 0.57 0.61
1.02 1.06 1.09 1.10 1.11 1.06 1.02 0.99 0.96 0.96 1.01 1.02 1.00 1.01 1.05 1.06 1.09 1.04 0.90 0.93 0.89 0.73 0.69 0.71 0.63 0.81 0.91 0.90 0.93 0.65 0.68 0.70 0.67 0.73 0.62 0.59 0.47 0.54 0.41 0.41 0.46 0.52 0.55 0.44 0.44 0.45 0.45 0.51 0.52 0.53 0.55 0.58 0.62 0.65
0.93 0.98 1.02 1.03 1.06 1.08 1.03 1.00 0.98 0.98 1.01 1.01 1.01 1.06 1.09 1.09 1.10 1.07 0.94 1.02 0.94 0.81 0.61 0.64 0.86 0.77 0.91 0.90 0.88 0.89 0.81 0.83 0.81 0.77 0.65 0.59 0.51 0.62 0.48 0.50 0.47 0.53 0.56 0.46 0.43 0.47 0.49 0.49 0.53 0.58 0.60 0.66 0.67 0.68
0.79 0.86 0.89 0.91 0.97 1.01 1.01 1.02 1.01 0.97 0.98 1.02 1.02 1.04 1.06 1.08 1.07 1.08 1.05 1.07 1.09 0.86 0.63 0.66 0.79 0.82 0.86 0.86 0.82 0.83 0.80 0.76 0.73 0.66 0.61 0.55 0.62 0.59 0.55 0.53 0.47 0.57 0.48 0.45 0.38 0.48 0.51 0.49 0.59 0.64 0.62 0.62 0.60 0.55
0.67 0.65 0.68 0.74 0.81 0.86 0.90 0.93 0.98 1.01 1.00 1.02 1.05 1.07 1.08 1.08 1.09 1.00 0.79 1.00 1.09 1.06 0.77 0.58 0.77 0.72 0.78 0.80 0.77 0.77 0.79 0.78 0.76 0.67 0.62 0.65 0.68 0.61 0.46 0.39 0.52 0.54 0.59 0.60 0.52 0.56 0.54 0.58 0.61 0.63 0.57 0.56 0.52 0.50
0.62 0.62 0.63 0.63 0.59 0.63 0.64 0.70 0.80 0.92 0.97 1.03 1.08 1.09 1.09 1.11 1.06 0.87 0.77 0.90 1.04 1.05 0.74 0.59 0.57 0.70 0.73 0.72 0.71 0.70 0.76 0.74 0.74 0.68 0.61 0.61 0.60 0.64 0.52 0.41 0.48 0.56 0.57 0.58 0.55 0.55 0.54 0.62 0.57 0.57 0.50 0.48 0.48 0.46
0.59 0.62 0.62 0.63 0.65 0.63 0.63 0.59 0.57 0.63 0.74 0.90 1.01 1.04 1.06 1.05 1.00 0.87 0.97 1.03 1.08 0.87 0.79 0.56 0.52 0.59 0.72 0.60 0.58 0.69 0.61 0.65 0.66 0.62 0.62 0.56 0.58 0.57 0.43 0.50 0.50 0.52 0.52 0.51 0.54 0.61 0.56 0.53 0.49 0.47 0.45 0.43 0.41 0.38
0.58 0.60 0.63 0.62 0.61 0.62 0.64 0.67 0.65 0.66 0.66 0.69 0.77 0.85 0.83 0.81 0.79 0.84 1.00 1.03 0.97 0.81 0.58 0.56 0.46 0.45 0.68 0.61 0.63 0.60 0.61 0.48 0.59 0.48 0.49 0.53 0.45 0.39 0.46 0.47 0.47 0.45 0.47 0.48 0.50 0.49 0.47 0.45 0.43 0.42 0.40 0.36 0.33 0.34
0.58 0.58 0.61 0.63 0.61 0.60 0.61 0.65 0.67 0.70 0.71 0.73 0.69 0.58 0.52 0.63 0.80 0.75 0.62 0.62 0.65 0.64 0.64 0.51 0.56 0.43 0.53 0.50 0.47 0.48 0.51 0.44 0.37 0.40 0.51 0.42 0.35 0.41 0.43 0.40 0.37 0.45 0.45 0.47 0.44 0.44 0.42 0.38 0.33 0.29 0.31 0.33 0.32 0.29
0.59 0.59 0.61 0.61 0.61 0.61 0.63 0.65 0.67 0.67 0.70 0.63 0.52 0.51 0.66 0.77 0.63 0.55 0.45 0.41 0.44 0.39 0.46 0.46 0.48 0.44 0.58 0.44 0.44 0.50 0.42 0.42 0.31 0.33 0.35 0.31 0.26 0.29 0.31 0.37 0.43 0.48 0.46 0.44 0.43 0.39 0.34 0.29 0.27 0.28 0.28 0.27 0.27 0.29
0.57 0.60 0.61 0.62 0.62 0.61 0.63 0.66 0.67 0.62 0.59 0.59 0.62 0.67 0.64 0.55 0.49 0.41 0.37 0.41 0.38 0.36 0.45 0.39 0.42 0.49 0.51 0.55 0.44 0.44 0.36 0.37 0.25 0.37 0.30 0.22 0.24 0.25 0.31 0.40 0.44 0.44 0.42 0.38 0.35 0.31 0.29 0.25 0.25 0.27 0.27 0.27 0.29 0.31
0.57 0.58 0.60 0.62 0.62 0.61 0.62 0.64 0.64 0.65 0.65 0.61 0.50 0.46 0.45 0.44 0.34 0.31 0.27 0.31 0.31 0.39 0.43 0.44 0.41 0.47 0.49 0.47 0.40 0.34 0.27 0.25 0.33 0.25 0.19 0.21 0.28 0.34 0.35 0.37 0.37 0.38 0.38 0.37 0.35 0.31 0.27 0.25 0.26 0.28 0.27 0.30 0.30 0.31
0.59 0.59 0.60 0.61 0.61 0.59 0.59 0.61 0.62 0.64 0.55 0.41 0.33 0.28 0.30 0.27 0.29 0.31 0.33 0.35 0.41 0.43 0.43 0.44 0.41 0.38 0.40 0.34 0.33 0.24 0.27 0.28 0.21 0.17 0.17 0.25 0.30 0.33 0.36 0.38 0.38 0.37 0.38 0.35 0.32 0.30 0.26 0.25 0.24 0.26 0.29 0.31 0.31 0.31
0.60 0.60 0.60 0.60 0.59 0.57 0.57 0.58 0.60 0.58 0.47 0.34 0.31 0.22 0.24 0.33 0.36 0.36 0.39 0.38 0.42 0.45 0.42 0.38 0.37 0.37 0.31 0.28 0.27 0.24 0.20 0.17 0.18 0.16 0.23 0.27 0.30 0.32 0.32 0.33 0.32 0.30 0.30 0.29 0.29 0.28 0.25 0.26 0.29 0.27 0.29 0.32 0.34 0.34
0.60 0.58 0.56 0.59 0.58 0.58 0.57 0.55 0.54 0.51 0.39 0.34 0.30 0.23 0.28 0.26 0.26 0.29 0.30 0.30 0.39 0.39 0.38 0.35 0.28 0.24 0.21 0.22 0.19 0.16 0.16 0.12 0.16 0.24 0.26 0.27 0.28 0.29 0.29 0.29 0.27 0.28 0.30 0.29 0.27 0.25 0.27 0.28 0.29 0.31 0.30 0.32 0.35 0.36
0.51 0.47 0.57 0.57 0.55 0.53 0.53 0.48 0.44 0.36 0.31 0.26 0.24 0.30 0.29 0.26 0.25 0.27 0.29 0.33 0.41 0.33 0.24 0.22 0.16 0.14 0.21 0.17 0.15 0.18 0.14 0.17 0.22 0.23 0.26 0.26 0.25 0.24 0.25 0.25 0.25 0.28 0.28 0.26 0.24 0.25 0.28 0.30 0.33 0.31 0.27 0.30 0.35 0.38
0.47 0.52 0.54 0.54 0.51 0.50 0.46 0.44 0.37 0.30 0.23 0.26 0.22 0.24 0.27 0.28 0.26 0.27 0.29 0.35 0.33 0.29 0.24 0.18 0.21 0.15 0.13 0.11 0.11 0.14 0.17 0.19 0.21 0.22 0.21 0.20 0.23 0.26 0.26 0.25 0.27 0.27 0.26 0.25 0.25 0.27 0.29 0.29 0.29 0.31 0.32 0.34 0.36 0.38
0.49 0.51 0.54 0.54 0.53 0.44 0.35 0.36 0.37 0.24 0.24 0.27 0.28 0.29 0.29 0.29 0.31 0.31 0.32 0.34 0.35 0.35 0.28 0.23 0.17 0.14 0.13 0.15 0.15 0.16 0.18 0.20 0.22 0.23 0.22 0.22 0.24 0.27 0.28 0.29 0.28 0.26 0.25 0.26 0.27 0.28 0.29 0.34 0.33 0.34 0.34 0.36 0.36 0.37
0.52 0.52 0.52 0.52 0.51 0.37 0.32 0.32 0.38 0.29 0.25 0.28 0.29 0.26 0.27 0.25 0.26 0.27 0.28 0.28 0.28 0.27 0.22 0.20 0.17 0.17 0.17 0.18 0.20 0.21 0.22 0.22 0.21 0.20 0.21 0.23 0.28 0.29 0.26 0.25 0.26 0.27 0.29 0.30 0.31 0.34 0.35 0.35 0.35 0.35 0.35 0.38 0.37 0.36
0.47 0.48 0.51 0.51 0.46 0.42 0.34 0.29 0.27 0.27 0.27 0.24 0.27 0.26 0.23 0.24 0.23 0.23 0.23 0.28 0.22 0.20 0.17 0.16 0.14 0.15 0.18 0.19 0.21 0.22 0.22 0.24 0.25 0.28 0.27 0.26 0.24 0.25 0.27 0.30 0.32 0.33 0.33 0.33 0.32 0.32 0.34 0.34 0.35 0.36 0.38 0.39 0.39 0.40
0.46 0.49 0.46 0.47 0.37 0.35 0.31 0.34 0.27 0.29 0.24 0.23 0.22 0.24 0.21 0.19 0.19 0.21 0.26 0.22 0.20 0.19 0.19 0.16 0.17 0.19 0.20 0.20 0.22 0.26 0.28 0.30 0.30 0.29 0.27 0.27 0.26 0.28 0.29 0.32 0.33 0.32 0.34 0.34 0.34 0.35 0.36 0.37 0.37 0.38 0.39 0.39 0.39 0.38
0.47 0.44 0.39 0.37 0.30 0.27 0.24 0.33 0.25 0.26 0.21 0.21 0.22 0.19 0.18 0.19 0.21 0.27 0.20 0.21 0.19 0.21 0.22 0.23 0.23 0.24 0.24 0.25 0.27 0.28 0.29 0.29 0.27 0.27 0.28 0.30 0.32 0.34 0.34 0.34 0.37 0.35 0.33 0.34 0.39 0.38 0.36 0.38 0.38 0.38 0.39 0.38 0.36 0.34
0.47 0.36 0.29 0.26 0.26 0.22 0.27 0.24 0.27 0.24 0.23 0.21 0.20 0.18 0.19 0.20 0.24 0.20 0.16 0.17 0.19 0.22 0.21 0.21 0.23 0.22 0.24 0.25 0.25 0.26 0.27 0.28 0.29 0.29 0.32 0.32 0.29 0.29 0.34 0.35 0.37 0.39 0.37 0.37 0.38 0.37 0.38 0.37 0.38 0.37 0.37 0.36 0.34 0.32
0.28 0.27 0.27 0.22 0.27 0.22 0.20 0.20 0.20 0.20 0.17 0.19 0.18 0.17 0.18 0.21 0.17 0.16 0.14 0.15 0.18 0.18 0.20 0.22 0.24 0.25 0.24 0.24 0.25 0.25 0.27 0.29 0.28 0.27 0.30 0.32 0.31 0.30 0.30 0.34 0.36 0.38 0.39 0.37 0.36 0.36 0.36 0.37 0.37 0.36 0.34 0.34 0.33 0.32
0.21 0.25 0.21 0.20 0.21 0.19 0.19 0.16 0.17 0.17 0.17 0.17 0.18 0.20 0.21 0.20 0.17 0.14 0.14 0.15 0.18 0.20 0.22 0.23 0.23 0.23 0.24 0.25 0.25 0.26 0.28 0.33 0.32 0.29 0.30 0.33 0.33 0.31 0.28 0.28 0.29 0.32 0.39 0.40 0.37 0.34 0.34 0.35 0.34 0.34 0.33 0.33 0.32 0.29
0.20 0.20 0.24 0.27 0.25 0.23 0.20 0.20 0.21 0.19 0.17 0.17 0.18 0.19 0.19 0.16 0.14 0.15 0.18 0.20 0.22 0.27 0.30 0.31 0.31 0.29 0.28 0.28 0.31 0.34 0.36 0.36 0.33 0.31 0.33 0.35 0.36 0.35 0.32 0.30 0.30 0.35 0.40 0.40 0.39 0.36 0.34 0.34 0.35 0.34 0.33 0.31 0.29 0.27
0.23 0.23 0.19 0.22 0.22 0.24 0.20 0.19 0.18 0.18 0.19 0.21 0.20 0.17 0.16 0.15 0.13 0.18 0.22 0.28 0.30 0.31 0.31 0.32 0.33 0.33 0.32 0.33 0.35 0.37 0.34 0.33 0.33 0.34 0.35 0.34 0.35 0.35 0.36 0.39 0.40 0.41 0.40 0.40 0.40 0.39 0.38 0.37 0.36 0.35 0.33 0.31 0.30 0.29
0.22 0.24 0.23 0.19 0.21 0.21 0.20 0.19 0.19 0.20 0.22 0.21 0.18 0.18 0.18 0.22 0.25 0.26 0.28 0.31 0.34 0.33 0.31 0.31 0.32 0.37 0.37 0.38 0.38 0.37 0.36 0.32 0.29 0.26 0.26 0.26 0.27 0.31 0.36 0.36 0.36 0.38 0.39 0.39 0.40 0.40 0.40 0.39 0.38 0.37 0.36 0.34 0.33 0.32
0.20 0.24 0.20 0.19 0.17 0.17 0.18 0.21 0.19 0.22 0.25 0.27 0.27 0.27 0.27 0.28 0.29 0.34 0.33 0.33 0.32 0.32 0.34 0.36 0.37 0.36 0.33 0.33 0.32 0.33 0.35 0.35 0.35 0.32 0.28 0.26 0.28 0.32 0.34 0.34 0.34 0.36 0.38 0.38 0.37 0.37 0.38 0.38 0.38 0.37 0.35 0.34 0.33 0.31
0.22 0.22 0.20 0.20 0.18 0.19 0.21 0.24 0.26 0.27 0.27 0.26 0.27 0.26 0.24 0.26 0.30 0.34 0.34 0.34 0.34 0.36 0.35 0.34 0.34 0.35 0.33 0.32 0.31 0.29 0.29 0.35 0.35 0.34 0.33 0.33 0.34 0.34 0.35 0.35 0.36 0.36 0.36 0.35 0.34 0.34 0.33 0.33 0.33 0.32 0.31 0.30 0.29 0.29
0.23 0.21 0.20 0.19 0.19 0.23 0.26 0.24 0.23 0.22 0.23 0.24 0.24 0.27 0.26 0.27 0.24 0.29 0.32 0.33 0.31 0.30 0.31 0.32 0.31 0.31 0.34 0.34 0.35 0.35 0.34 0.32 0.32 0.32 0.31 0.31 0.32 0.33 0.34 0.35 0.36 0.36 0.34 0.33 0.33 0.32 0.31 0.30 0.30 0.29 0.28 0.28 0.27 0.27
0.21 0.22 0.22 0.22 0.20 0.19 0.21 0.22 0.21 0.20 0.21 0.20 0.21 0.23 0.25 0.25 0.24 0.29 0.32 0.33 0.31 0.30 0.30 0.30 0.32 0.32 0.33 0.33 0.33 0.32 0.32 0.32 0.32 0.32 0.32 0.31 0.31 0.31 0.32 0.32 0.32 0.32 0.32 0.31 0.30 0.30 0.29 0.28 0.27 0.27 0.27 0.26 0.25 0.24

GFSWCAN_prec_pwat_006.txt.gz
Precipitable_Water
1.12 1.09 1.02 0.95 0.87 0.86 0.88 0.92 0.92 0.92 0.93 0.93 0.94 0.95 0.95 0.94 0.93 0.85 0.80 0.92 0.67 0.52 0.56 0.60 0.60 0.51 0.55 0.55 0.45 0.56 0.54 0.56 0.55 0.45 0.42 0.40 0.38 0.41 0.40 0.42 0.39 0.37 0.36 0.35 0.36 0.31 0.27 0.50 0.50 0.41 0.49 0.55 0.54 0.50
1.08 1.10 1.05 1.00 0.95 0.89 0.87 0.87 0.88 0.89 0.88 0.91 0.92 0.94 0.95 0.95 0.95 0.93 0.73 0.94 0.94 0.66 0.58 0.76 0.75 0.77 0.75 0.72 0.62 0.65 0.60 0.58 0.60 0.51 0.50 0.50 0.43 0.47 0.44 0.36 0.50 0.39 0.44 0.38 0.38 0.35 0.48 0.54 0.52 0.55 0.58 0.54 0.53 0.56
1.03 1.06 1.07 1.07 1.02 0.98 0.93 0.91 0.89 0.89 0.89 0.92 0.93 0.95 0.98 0.97 0.98 0.98 0.86 0.91 0.86 0.72 0.68 0.66 0.57 0.73 0.84 0.84 0.87 0.62 0.66 0.71 0.66 0.71 0.61 0.57 0.47 0.53 0.41 0.43 0.48 0.53 0.56 0.44 0.45 0.44 0.48 0.53 0.53 0.55 0.58 0.58 0.62 0.64
1.00 1.03 1.05 1.08 1.10 1.07 1.03 0.96 0.93 0.94 0.94 0.94 0.94 0.95 0.97 1.00 1.04 1.06 0.92 0.98 0.92 0.82 0.60 0.57 0.81 0.71 0.84 0.85 0.84 0.86 0.78 0.79 0.79 0.76 0.63 0.59 0.52 0.63 0.50 0.53 0.49 0.55 0.57 0.51 0.46 0.51 0.51 0.53 0.55 0.58 0.62 0.64 0.59 0.60
0.89 0.97 1.00 1.04 1.07 1.10 1.10 1.07 1.04 1.02 1.01 1.00 0.99 0.97 0.98 1.00 1.05 1.04 1.00 1.03 1.06 0.81 0.60 0.62 0.73 0.77 0.82 0.83 0.80 0.83 0.80 0.77 0.72 0.64 0.60 0.54 0.61 0.60 0.58 0.55 0.49 0.59 0.50 0.46 0.39 0.53 0.52 0.48 0.60 0.62 0.57 0.56 0.61 0.57
0.79 0.85 0.91 0.94 0.98 1.02 1.05 1.09 1.06 1.05 1.06 1.03 1.02 1.02 1.03 1.03 1.05 0.97 0.75 0.97 1.06 1.04 0.73 0.55 0.75 0.70 0.78 0.81 0.80 0.74 0.74 0.74 0.72 0.65 0.60 0.62 0.67 0.60 0.47 0.42 0.53 0.55 0.59 0.59 0.55 0.62 0.59 0.60 0.63 0.62 0.55 0.56 0.53 0.48
0.70 0.69 0.73 0.79 0.84 0.87 0.93 0.96 1.00 1.01 1.05 1.04 1.03 1.04 1.04 1.04 1.00 0.82 0.75 0.88 1.03 1.04 0.73 0.57 0.57 0.72 0.74 0.74 0.73 0.72 0.75 0.70 0.69 0.64 0.58 0.58 0.58 0.64 0.52 0.40 0.42 0.52 0.56 0.59 0.64 0.62 0.54 0.58 0.52 0.54 0.52 0.48 0.43 0.40
0.68 0.70 0.69 0.65 0.64 0.67 0.72 0.75 0.82 0.88 0.94 0.99 1.04 1.06 1.06 1.05 1.01 0.88 0.98 1.06 1.06 0.89 0.80 0.56 0.52 0.59 0.73 0.61 0.59 0.71 0.62 0.65 0.65 0.60 0.58 0.51 0.55 0.55 0.43 0.43 0.49 0.52 0.54 0.57 0.58 0.56 0.53 0.53 0.49 0.43 0.40 0.39 0.36 0.34
0.66 0.68 0.68 0.65 0.65 0.63 0.64 0.65 0.62 0.61 0.69 0.84 0.97 1.00 0.96 0.89 0.79 0.83 1.02 1.02 1.01 0.85 0.59 0.55 0.46 0.44 0.70 0.63 0.64 0.64 0.61 0.41 0.53 0.44 0.47 0.52 0.45 0.38 0.41 0.45 0.44 0.47 0.46 0.45 0.47 0.48 0.46 0.42 0.40 0.35 0.34 0.33 0.33 0.30
0.65 0.66 0.66 0.65 0.64 0.63 0.64 0.66 0.69 0.70 0.70 0.73 0.67 0.58 0.55 0.73 0.89 0.90 0.80 0.71 0.71 0.69 0.65 0.51 0.57 0.48 0.59 0.56 0.51 0.47 0.51 0.45 0.38 0.42 0.52 0.42 0.35 0.44 0.43 0.41 0.39 0.38 0.40 0.42 0.40 0.41 0.40 0.33 0.31 0.29 0.28 0.30 0.29 0.28
0.62 0.63 0.63 0.62 0.63 0.62 0.63 0.63 0.63 0.67 0.70 0.61 0.53 0.51 0.67 0.78 0.66 0.58 0.48 0.47 0.48 0.41 0.46 0.45 0.47 0.45 0.53 0.40 0.44 0.52 0.42 0.41 0.30 0.33 0.35 0.31 0.29 0.33 0.35 0.34 0.37 0.41 0.45 0.45 0.40 0.38 0.33 0.31 0.27 0.26 0.26 0.27 0.27 0.27
0.60 0.62 0.63 0.62 0.62 0.64 0.65 0.65 0.62 0.60 0.59 0.60 0.62 0.70 0.67 0.54 0.49 0.42 0.40 0.42 0.38 0.34 0.42 0.38 0.43 0.50 0.51 0.55 0.43 0.42 0.35 0.36 0.26 0.38 0.32 0.26 0.30 0.34 0.35 0.37 0.40 0.39 0.39 0.38 0.36 0.35 0.38 0.35 0.31 0.29 0.28 0.26 0.26 0.29
0.59 0.62 0.63 0.63 0.62 0.63 0.65 0.63 0.62 0.63 0.62 0.60 0.52 0.48 0.46 0.46 0.36 0.31 0.27 0.31 0.33 0.40 0.41 0.41 0.39 0.46 0.49 0.49 0.41 0.37 0.30 0.27 0.36 0.28 0.24 0.26 0.30 0.35 0.38 0.39 0.38 0.40 0.39 0.40 0.40 0.38 0.35 0.31 0.29 0.29 0.27 0.29 0.29 0.27
0.58 0.61 0.61 0.63 0.63 0.61 0.61 0.61 0.63 0.60 0.53 0.40 0.35 0.30 0.31 0.29 0.31 0.33 0.34 0.37 0.44 0.45 0.45 0.45 0.41 0.39 0.40 0.35 0.35 0.26 0.29 0.30 0.22 0.19 0.19 0.24 0.29 0.32 0.34 0.34 0.31 0.30 0.32 0.32 0.32 0.31 0.29 0.27 0.24 0.26 0.27 0.29 0.30 0.27
0.60 0.60 0.61 0.63 0.61 0.59 0.59 0.59 0.60 0.56 0.45 0.34 0.32 0.23 0.27 0.34 0.37 0.38 0.41 0.42 0.45 0.47 0.42 0.39 0.39 0.38 0.33 0.30 0.29 0.26 0.22 0.19 0.20 0.17 0.23 0.28 0.30 0.28 0.27 0.27 0.29 0.29 0.26 0.24 0.24 0.26 0.26 0.25 0.24 0.25 0.28 0.28 0.30 0.31
0.62 0.60 0.59 0.63 0.61 0.58 0.57 0.56 0.54 0.50 0.40 0.35 0.31 0.25 0.30 0.28 0.29 0.33 0.34 0.34 0.41 0.39 0.39 0.36 0.29 0.26 0.25 0.25 0.21 0.19 0.18 0.14 0.16 0.24 0.27 0.29 0.28 0.27 0.25 0.26 0.27 0.24 0.21 0.23 0.25 0.26 0.26 0.26 0.25 0.27 0.30 0.31 0.33 0.33
0.57 0.52 0.61 0.61 0.59 0.57 0.57 0.51 0.46 0.38 0.33 0.28 0.26 0.32 0.30 0.28 0.26 0.27 0.29 0.31 0.40 0.32 0.25 0.26 0.20 0.18 0.22 0.18 0.16 0.19 0.15 0.16 0.22 0.23 0.24 0.26 0.26 0.24 0.24 0.22 0.21 0.23 0.25 0.26 0.25 0.24 0.24 0.25 0.28 0.28 0.28 0.31 0.34 0.34
0.51 0.57 0.57 0.57 0.55 0.52 0.48 0.45 0.37 0.32 0.25 0.27 0.23 0.26 0.29 0.30 0.28 0.29 0.29 0.34 0.34 0.31 0.26 0.19 0.20 0.15 0.14 0.12 0.12 0.15 0.18 0.20 0.21 0.22 0.21 0.22 0.23 0.23 0.23 0.23 0.25 0.26 0.25 0.25 0.25 0.25 0.26 0.27 0.29 0.30 0.33 0.35 0.35 0.35
0.51 0.53 0.53 0.53 0.50 0.43 0.36 0.38 0.37 0.24 0.24 0.27 0.28 0.29 0.27 0.26 0.29 0.30 0.30 0.33 0.37 0.37 0.30 0.25 0.18 0.14 0.13 0.15 0.14 0.14 0.15 0.19 0.20 0.20 0.19 0.20 0.22 0.24 0.25 0.27 0.26 0.25 0.26 0.27 0.29 0.29 0.31 0.33 0.33 0.33 0.34 0.36 0.33 0.33
0.53 0.53 0.53 0.54 0.51 0.38 0.32 0.32 0.38 0.29 0.24 0.27 0.28 0.26 0.27 0.26 0.28 0.29 0.30 0.31 0.31 0.29 0.24 0.21 0.17 0.17 0.16 0.15 0.17 0.18 0.19 0.20 0.20 0.19 0.18 0.21 0.25 0.27 0.26 0.26 0.25 0.27 0.29 0.29 0.30 0.32 0.33 0.32 0.33 0.36 0.37 0.36 0.32 0.33
0.51 0.51 0.53 0.50 0.44 0.40 0.32 0.28 0.27 0.27 0.26 0.24 0.27 0.26 0.24 0.26 0.24 0.23 0.23 0.28 0.23 0.20 0.18 0.20 0.18 0.18 0.18 0.18 0.20 0.21 0.21 0.22 0.22 0.24 0.23 0.22 0.24 0.27 0.26 0.27 0.30 0.31 0.30 0.30 0.31 0.32 0.33 0.33 0.35 0.37 0.36 0.34 0.36 0.39
0.47 0.51 0.45 0.46 0.36 0.34 0.31 0.32 0.26 0.28 0.24 0.24 0.23 0.25 0.22 0.19 0.19 0.20 0.25 0.22 0.20 0.20 0.20 0.17 0.17 0.18 0.18 0.19 0.20 0.23 0.24 0.25 0.26 0.28 0.29 0.29 0.26 0.25 0.26 0.30 0.30 0.29 0.30 0.32 0.34 0.33 0.32 0.35 0.37 0.37 0.36 0.36 0.38 0.39
0.46 0.44 0.39 0.36 0.28 0.26 0.24 0.33 0.25 0.26 0.21 0.21 0.23 0.19 0.18 0.18 0.20 0.25 0.20 0.21 0.20 0.21 0.20 0.20 0.21 0.22 0.22 0.23 0.24 0.25 0.27 0.27 0.27 0.26 0.27 0.27 0.28 0.31 0.31 0.29 0.31 0.30 0.29 0.32 0.36 0.35 0.34 0.36 0.37 0.37 0.36 0.36 0.36 0.35
0.45 0.35 0.29 0.26 0.25 0.21 0.26 0.24 0.27 0.24 0.23 0.21 0.19 0.16 0.17 0.18 0.22 0.20 0.15 0.16 0.18 0.20 0.21 0.21 0.23 0.22 0.23 0.23 0.22 0.23 0.26 0.28 0.27 0.27 0.27 0.27 0.27 0.28 0.30 0.29 0.30 0.32 0.33 0.35 0.36 0.36 0.36 0.35 0.35 0.36 0.36 0.35 0.34 0.34
0.26 0.26 0.26 0.21 0.25 0.22 0.20 0.20 0.20 0.19 0.16 0.18 0.16 0.15 0.16 0.20 0.17 0.16 0.14 0.15 0.16 0.17 0.19 0.21 0.22 0.23 0.21 0.22 0.23 0.24 0.28 0.28 0.26 0.25 0.28 0.31 0.30 0.29 0.27 0.30 0.31 0.32 0.34 0.33 0.34 0.34 0.35 0.36 0.35 0.35 0.34 0.33 0.33 0.33
0.20 0.24 0.20 0.20 0.21 0.18 0.18 0.15 0.16 0.16 0.16 0.16 0.17 0.19 0.19 0.18 0.15 0.14 0.14 0.16 0.17 0.19 0.20 0.23 0.24 0.25 0.25 0.27 0.26 0.26 0.27 0.31 0.31 0.29 0.31 0.33 0.31 0.28 0.27 0.26 0.26 0.27 0.35 0.37 0.35 0.34 0.34 0.34 0.33 0.33 0.32 0.33 0.34 0.32
0.19 0.19 0.24 0.27 0.24 0.22 0.20 0.21 0.21 0.18 0.16 0.16 0.17 0.17 0.17 0.15 0.14 0.15 0.18 0.20 0.20 0.24 0.29 0.30 0.29 0.28 0.28 0.28 0.31 0.33 0.35 0.36 0.34 0.33 0.35 0.35 0.34 0.33 0.32 0.30 0.28 0.32 0.37 0.37 0.37 0.36 0.34 0.34 0.33 0.34 0.34 0.35 0.34 0.32
0.23 0.22 0.18 0.22 0.23 0.25 0.20 0.20 0.18 0.17 0.18 0.20 0.19 0.16 0.15 0.15 0.13 0.18 0.21 0.26 0.29 0.30 0.31 0.31 0.32 0.32 0.31 0.32 0.33 0.34 0.36 0.39 0.38 0.37 0.36 0.36 0.35 0.35 0.36 0.37 0.37 0.36 0.36 0.37 0.37 0.38 0.37 0.37 0.36 0.36 0.35 0.34 0.34 0.35
0.23 0.25 0.25 0.22 0.23 0.23 0.22 0.20 0.19 0.20 0.21 0.19 0.17 0.16 0.17 0.20 0.23 0.23 0.26 0.29 0.32 0.31 0.30 0.29 0.30 0.36 0.37 0.39 0.39 0.40 0.39 0.37 0.32 0.28 0.27 0.25 0.28 0.31 0.35 0.34 0.34 0.35 0.36 0.35 0.37 0.38 0.38 0.37 0.37 0.36 0.36 0.36 0.36 0.36
0.23 0.27 0.23 0.21 0.20 0.18 0.19 0.22 0.19 0.21 0.23 0.23 0.24 0.23 0.23 0.23 0.26 0.30 0.30 0.30 0.30 0.30 0.32 0.33 0.34 0.34 0.33 0.33 0.33 0.33 0.36 0.36 0.35 0.31 0.28 0.27 0.29 0.32 0.33 0.33 0.33 0.34 0.34 0.34 0.34 0.35 0.36 0.35 0.35 0.36 0.35 0.35 0.34 0.33
0.23 0.22 0.20 0.19 0.17 0.19 0.20 0.23 0.25 0.26 0.25 0.24 0.25 0.23 0.22 0.23 0.26 0.31 0.32 0.32 0.32 0.33 0.32 0.32 0.32 0.33 0.32 0.31 0.31 0.30 0.30 0.34 0.34 0.33 0.33 0.32 0.32 0.31 0.32 0.33 0.34 0.34 0.34 0.33 0.32 0.31 0.31 0.31 0.31 0.30 0.30 0.30 0.30 0.29
0.22 0.20 0.19 0.18 0.19 0.23 0.26 0.24 0.24 0.22 0.22 0.21 0.20 0.22 0.22 0.23 0.22 0.27 0.29 0.31 0.30 0.29 0.31 0.31 0.30 0.30 0.32 0.33 0.33 0.33 0.33 0.32 0.32 0.32 0.31 0.31 0.31 0.31 0.32 0.32 0.33 0.33 0.32 0.32 0.31 0.30 0.29 0.28 0.28 0.28 0.27 0.27 0.27 0.26
0.19 0.17 0.14 0.13 0.12 0.13 0.15 0.16 0.16 0.17 0.18 0.17 0.18 0.20 0.21 0.23 0.22 0.25 0.29 0.30 0.29 0.28 0.28 0.29 0.30 0.31 0.31 0.32 0.32 0.31 0.31 0.31 0.31 0.31 0.31 0.30 0.30 0.29 0.29 0.29 0.30 0.30 0.29 0.29 0.28 0.27 0.26 0.26 0.25 0.24 0.24 0.24 0.24 0.23

GFSWCAN_prec_pwat_009.txt.gz
Precipitable_Water
1.09 1.08 1.03 0.96 0.90 0.91 0.94 0.96 0.98 0.98 0.95 0.93 0.92 0.93 0.93 0.91 0.89 0.84 0.80 0.89 0.65 0.49 0.50 0.54 0.54 0.44 0.45 0.44 0.37 0.48 0.48 0.49 0.48 0.39 0.39 0.39 0.38 0.40 0.40 0.42 0.40 0.39 0.37 0.35 0.36 0.32 0.27 0.49 0.50 0.40 0.47 0.54 0.55 0.53
1.06 1.09 1.10 1.02 0.97 0.93 0.90 0.94 0.94 0.96 0.97 0.96 0.95 0.95 0.96 0.96 0.95 0.91 0.73 0.91 0.86 0.59 0.53 0.70 0.68 0.69 0.63 0.60 0.52 0.54 0.50 0.49 0.54 0.47 0.47 0.47 0.42 0.45 0.43 0.35 0.49 0.39 0.44 0.39 0.40 0.38 0.50 0.53 0.52 0.56 0.58 0.54 0.53 0.56
1.01 1.07 1.09 1.10 1.06 1.01 0.97 0.91 0.92 0.94 0.95 0.95 0.94 0.95 0.96 0.97 0.97 0.93 0.83 0.87 0.78 0.60 0.57 0.56 0.57 0.75 0.85 0.83 0.84 0.56 0.60 0.66 0.62 0.68 0.58 0.54 0.45 0.52 0.41 0.43 0.48 0.54 0.56 0.46 0.47 0.50 0.49 0.55 0.58 0.60 0.61 0.57 0.63 0.64
0.98 1.03 1.06 1.10 1.08 1.05 1.01 0.95 0.91 0.89 0.90 0.92 0.92 0.92 0.93 0.96 0.96 0.95 0.83 0.89 0.80 0.69 0.49 0.49 0.77 0.70 0.83 0.84 0.81 0.81 0.75 0.79 0.75 0.71 0.61 0.57 0.50 0.62 0.49 0.52 0.50 0.54 0.56 0.53 0.47 0.53 0.53 0.54 0.56 0.62 0.65 0.69 0.64 0.60
0.93 0.99 1.02 1.06 1.09 1.07 1.03 1.00 0.94 0.91 0.90 0.90 0.90 0.90 0.91 0.93 0.95 0.94 0.94 0.96 0.97 0.74 0.54 0.56 0.70 0.76 0.80 0.82 0.78 0.81 0.78 0.72 0.70 0.63 0.60 0.54 0.61 0.58 0.58 0.55 0.49 0.56 0.47 0.45 0.42 0.52 0.51 0.51 0.63 0.70 0.62 0.58 0.56 0.51
0.86 0.93 0.96 1.01 1.05 1.08 1.08 1.07 1.03 0.99 0.97 0.95 0.95 0.95 0.95 0.96 0.97 0.88 0.68 0.89 0.96 0.93 0.70 0.53 0.75 0.70 0.75 0.79 0.76 0.74 0.74 0.74 0.74 0.66 0.60 0.62 0.67 0.60 0.47 0.41 0.51 0.57 0.58 0.64 0.54 0.57 0.61 0.61 0.65 0.63 0.58 0.53 0.46 0.44
0.79 0.84 0.91 0.93 0.95 1.00 1.04 1.05 1.07 1.07 1.07 1.05 1.03 1.01 1.02 1.03 1.00 0.80 0.70 0.81 0.94 0.98 0.71 0.56 0.55 0.69 0.73 0.73 0.72 0.72 0.77 0.73 0.70 0.64 0.59 0.58 0.59 0.63 0.50 0.39 0.47 0.55 0.62 0.59 0.60 0.60 0.54 0.57 0.52 0.50 0.43 0.40 0.38 0.37
0.72 0.73 0.79 0.84 0.88 0.90 0.93 0.98 1.03 1.06 1.07 1.08 1.08 1.08 1.07 1.06 1.03 0.87 0.96 1.02 1.03 0.86 0.77 0.55 0.53 0.59 0.73 0.60 0.58 0.71 0.64 0.67 0.66 0.61 0.60 0.53 0.54 0.53 0.41 0.44 0.51 0.56 0.56 0.54 0.52 0.51 0.48 0.49 0.43 0.39 0.39 0.37 0.34 0.33
0.70 0.70 0.69 0.70 0.74 0.78 0.81 0.86 0.93 0.97 1.01 1.04 1.05 1.04 0.98 0.91 0.81 0.84 1.02 1.06 1.03 0.84 0.61 0.56 0.47 0.44 0.70 0.62 0.64 0.63 0.63 0.49 0.59 0.50 0.48 0.48 0.43 0.38 0.44 0.49 0.49 0.47 0.42 0.40 0.42 0.44 0.43 0.40 0.38 0.32 0.29 0.29 0.29 0.29
0.67 0.71 0.71 0.69 0.65 0.67 0.70 0.72 0.70 0.76 0.87 0.96 0.92 0.80 0.67 0.79 0.97 0.96 0.85 0.73 0.72 0.71 0.67 0.53 0.61 0.51 0.63 0.60 0.55 0.52 0.53 0.46 0.36 0.41 0.51 0.42 0.37 0.48 0.49 0.44 0.41 0.39 0.39 0.40 0.37 0.37 0.35 0.30 0.33 0.32 0.30 0.29 0.29 0.28
0.67 0.67 0.70 0.68 0.67 0.70 0.72 0.72 0.75 0.74 0.69 0.60 0.61 0.63 0.80 0.92 0.78 0.68 0.55 0.52 0.54 0.50 0.56 0.56 0.57 0.51 0.60 0.44 0.44 0.51 0.43 0.43 0.33 0.35 0.36 0.32 0.31 0.37 0.42 0.41 0.41 0.41 0.40 0.38 0.36 0.34 0.36 0.34 0.31 0.28 0.27 0.27 0.29 0.30
0.65 0.67 0.68 0.67 0.68 0.69 0.67 0.67 0.69 0.65 0.62 0.61 0.60 0.66 0.65 0.55 0.48 0.40 0.39 0.44 0.40 0.35 0.44 0.41 0.45 0.49 0.52 0.58 0.48 0.48 0.39 0.38 0.27 0.39 0.33 0.27 0.35 0.39 0.39 0.39 0.41 0.42 0.40 0.38 0.37 0.35 0.35 0.35 0.34 0.31 0.29 0.26 0.27 0.27
0.63 0.66 0.67 0.67 0.67 0.69 0.67 0.65 0.67 0.66 0.64 0.60 0.54 0.49 0.46 0.45 0.34 0.31 0.27 0.32 0.34 0.41 0.44 0.44 0.42 0.49 0.50 0.50 0.43 0.40 0.32 0.30 0.39 0.30 0.26 0.29 0.34 0.36 0.35 0.35 0.33 0.33 0.34 0.32 0.30 0.30 0.30 0.31 0.32 0.30 0.27 0.27 0.28 0.28
0.62 0.65 0.67 0.66 0.67 0.67 0.65 0.65 0.66 0.62 0.54 0.40 0.37 0.30 0.31 0.30 0.33 0.34 0.35 0.36 0.43 0.46 0.45 0.45 0.43 0.42 0.44 0.39 0.38 0.29 0.30 0.31 0.23 0.20 0.19 0.27 0.30 0.29 0.28 0.28 0.29 0.28 0.28 0.26 0.24 0.24 0.25 0.25 0.26 0.27 0.28 0.28 0.28 0.28
0.61 0.65 0.67 0.66 0.65 0.65 0.64 0.64 0.61 0.56 0.45 0.34 0.32 0.25 0.29 0.34 0.37 0.38 0.41 0.41 0.45 0.48 0.45 0.42 0.40 0.39 0.34 0.31 0.30 0.27 0.24 0.21 0.21 0.19 0.24 0.28 0.29 0.29 0.29 0.29 0.28 0.26 0.24 0.22 0.23 0.23 0.22 0.23 0.23 0.23 0.24 0.25 0.28 0.31
0.65 0.64 0.60 0.65 0.64 0.63 0.61 0.60 0.56 0.50 0.41 0.35 0.31 0.26 0.30 0.30 0.32 0.36 0.38 0.39 0.47 0.45 0.43 0.38 0.31 0.27 0.26 0.27 0.23 0.20 0.19 0.15 0.18 0.24 0.27 0.28 0.28 0.29 0.26 0.25 0.24 0.24 0.24 0.22 0.22 0.23 0.24 0.23 0.24 0.25 0.26 0.28 0.30 0.33
0.62 0.54 0.62 0.61 0.59 0.59 0.58 0.53 0.48 0.40 0.34 0.29 0.26 0.32 0.30 0.29 0.28 0.29 0.32 0.33 0.40 0.33 0.25 0.27 0.21 0.20 0.23 0.20 0.18 0.21 0.17 0.20 0.24 0.23 0.25 0.27 0.26 0.24 0.23 0.23 0.22 0.23 0.22 0.23 0.24 0.24 0.24 0.26 0.28 0.28 0.27 0.29 0.31 0.33
0.53 0.58 0.62 0.62 0.58 0.55 0.52 0.48 0.39 0.34 0.28 0.28 0.25 0.26 0.31 0.32 0.30 0.30 0.32 0.35 0.34 0.30 0.27 0.23 0.23 0.17 0.15 0.12 0.13 0.17 0.20 0.21 0.20 0.20 0.21 0.21 0.21 0.21 0.22 0.23 0.24 0.25 0.24 0.24 0.25 0.27 0.28 0.28 0.28 0.28 0.30 0.32 0.32 0.34
0.56 0.58 0.59 0.58 0.54 0.46 0.40 0.40 0.38 0.25 0.25 0.27 0.28 0.29 0.29 0.29 0.31 0.31 0.30 0.31 0.35 0.36 0.31 0.26 0.20 0.15 0.14 0.16 0.15 0.16 0.17 0.16 0.16 0.17 0.17 0.19 0.22 0.23 0.24 0.25 0.26 0.25 0.25 0.26 0.27 0.28 0.29 0.31 0.32 0.33 0.34 0.34 0.33 0.34
0.59 0.57 0.56 0.55 0.51 0.39 0.32 0.33 0.39 0.29 0.23 0.26 0.28 0.27 0.27 0.26 0.28 0.28 0.29 0.31 0.30 0.30 0.26 0.22 0.19 0.20 0.18 0.19 0.19 0.18 0.19 0.20 0.19 0.17 0.17 0.19 0.22 0.24 0.24 0.26 0.26 0.27 0.27 0.28 0.28 0.29 0.29 0.30 0.33 0.33 0.34 0.35 0.33 0.32
0.52 0.53 0.54 0.50 0.44 0.39 0.33 0.30 0.28 0.29 0.28 0.26 0.28 0.27 0.25 0.27 0.24 0.23 0.23 0.28 0.25 0.23 0.20 0.22 0.20 0.21 0.22 0.21 0.22 0.22 0.21 0.22 0.21 0.22 0.20 0.19 0.23 0.26 0.26 0.27 0.27 0.28 0.27 0.26 0.25 0.26 0.29 0.30 0.32 0.34 0.35 0.35 0.36 0.36
0.48 0.52 0.47 0.46 0.37 0.35 0.32 0.32 0.27 0.28 0.24 0.24 0.24 0.25 0.22 0.20 0.20 0.21 0.25 0.21 0.20 0.19 0.19 0.17 0.17 0.18 0.18 0.19 0.20 0.22 0.23 0.24 0.24 0.25 0.25 0.26 0.23 0.23 0.23 0.25 0.27 0.25 0.25 0.26 0.27 0.27 0.29 0.32 0.35 0.35 0.34 0.35 0.37 0.37
0.48 0.45 0.40 0.37 0.29 0.27 0.26 0.34 0.25 0.26 0.21 0.21 0.23 0.19 0.18 0.18 0.20 0.25 0.19 0.21 0.20 0.20 0.19 0.20 0.21 0.22 0.22 0.22 0.24 0.24 0.25 0.24 0.23 0.24 0.26 0.25 0.26 0.26 0.25 0.27 0.29 0.27 0.25 0.26 0.31 0.30 0.30 0.34 0.36 0.35 0.35 0.35 0.36 0.35
0.45 0.35 0.29 0.27 0.25 0.21 0.27 0.23 0.26 0.24 0.23 0.20 0.18 0.16 0.17 0.18 0.22 0.19 0.15 0.16 0.16 0.19 0.20 0.20 0.22 0.21 0.22 0.22 0.21 0.22 0.24 0.26 0.25 0.26 0.26 0.26 0.25 0.26 0.29 0.29 0.30 0.30 0.30 0.30 0.30 0.30 0.32 0.33 0.36 0.35 0.34 0.34 0.34 0.33
0.26 0.26 0.25 0.21 0.25 0.22 0.19 0.20 0.21 0.20 0.17 0.18 0.17 0.16 0.16 0.19 0.16 0.15 0.13 0.13 0.15 0.17 0.18 0.19 0.20 0.21 0.21 0.23 0.25 0.26 0.28 0.28 0.26 0.25 0.27 0.29 0.30 0.30 0.29 0.30 0.30 0.30 0.32 0.30 0.30 0.30 0.31 0.34 0.34 0.35 0.33 0.33 0.32 0.32
0.19 0.23 0.20 0.20 0.20 0.19 0.18 0.16 0.16 0.16 0.16 0.16 0.16 0.18 0.18 0.16 0.14 0.11 0.13 0.14 0.16 0.17 0.19 0.19 0.22 0.24 0.25 0.27 0.26 0.26 0.28 0.31 0.30 0.27 0.29 0.33 0.33 0.32 0.29 0.28 0.26 0.27 0.33 0.34 0.32 0.31 0.31 0.33 0.33 0.33 0.33 0.33 0.33 0.33
0.19 0.20 0.24 0.28 0.24 0.22 0.19 0.20 0.20 0.18 0.16 0.16 0.17 0.17 0.16 0.13 0.12 0.14 0.17 0.19 0.20 0.22 0.26 0.30 0.30 0.28 0.27 0.27 0.29 0.30 0.31 0.33 0.32 0.33 0.36 0.36 0.38 0.38 0.36 0.31 0.28 0.31 0.35 0.34 0.33 0.32 0.31 0.32 0.33 0.33 0.34 0.35 0.35 0.35
0.23 0.23 0.19 0.22 0.22 0.23 0.19 0.19 0.19 0.18 0.18 0.20 0.19 0.15 0.14 0.14 0.13 0.17 0.19 0.22 0.24 0.27 0.29 0.30 0.30 0.30 0.30 0.31 0.33 0.34 0.34 0.36 0.38 0.39 0.39 0.39 0.38 0.36 0.37 0.37 0.36 0.35 0.35 0.34 0.33 0.33 0.33 0.33 0.33 0.33 0.33 0.33 0.34 0.36
0.23 0.26 0.25 0.21 0.22 0.23 0.22 0.21 0.20 0.21 0.22 0.21 0.17 0.16 0.17 0.20 0.22 0.22 0.23 0.25 0.28 0.28 0.27 0.27 0.29 0.34 0.35 0.36 0.36 0.35 0.36 0.35 0.32 0.28 0.27 0.27 0.29 0.31 0.35 0.35 0.35 0.35 0.34 0.33 0.33 0.34 0.34 0.34 0.34 0.33 0.34 0.34 0.35 0.36
0.23 0.28 0.24 0.23 0.22 0.20 0.22 0.24 0.21 0.23 0.25 0.25 0.25 0.24 0.23 0.23 0.26 0.30 0.28 0.28 0.27 0.26 0.28 0.30 0.32 0.32 0.31 0.31 0.31 0.33 0.35 0.35 0.34 0.31 0.28 0.27 0.28 0.32 0.32 0.32 0.32 0.33 0.33 0.33 0.32 0.32 0.32 0.32 0.32 0.31 0.30 0.30 0.31 0.32
0.26 0.25 0.22 0.21 0.18 0.20 0.21 0.23 0.24 0.24 0.24 0.23 0.24 0.23 0.22 0.24 0.27 0.29 0.28 0.28 0.29 0.28 0.28 0.28 0.30 0.31 0.31 0.30 0.30 0.30 0.29 0.32 0.33 0.33 0.32 0.31 0.31 0.31 0.31 0.31 0.32 0.32 0.32 0.32 0.31 0.30 0.29 0.28 0.28 0.28 0.27 0.27 0.27 0.28
0.22 0.20 0.18 0.16 0.16 0.18 0.18 0.15 0.14 0.14 0.14 0.14 0.14 0.16 0.18 0.20 0.20 0.24 0.26 0.25 0.25 0.25 0.26 0.27 0.27 0.28 0.30 0.31 0.31 0.31 0.31 0.30 0.30 0.30 0.30 0.30 0.29 0.30 0.29 0.29 0.30 0.30 0.29 0.29 0.28 0.28 0.27 0.26 0.25 0.25 0.25 0.25 0.25 0.24
0.17 0.17 0.16 0.14 0.12 0.10 0.11 0.11 0.11 0.10 0.10 0.10 0.13 0.14 0.15 0.18 0.17 0.20 0.26 0.27 0.25 0.25 0.26 0.27 0.28 0.29 0.29 0.30 0.30 0.29 0.29 0.29 0.29 0.29 0.29 0.29 0.28 0.27 0.27 0.26 0.26 0.26 0.25 0.25 0.25 0.24 0.24 0.23 0.22 0.22 0.22 0.22 0.22 0.21